Theta_e
314 315 315 316 316 316 315 314 315 314 313 314 314 313 314 314 305 298 294 303 306 314 309 297 295 294 293 290 291 290 284 281 283 282 284 285 285 287 288 287 288 290 289 293 296
315 315 316 316 316 317 316 314 313 313 313 313 314 314 314 312 295 291 303 311 313 312 297 294 291 292 288 288 288 285 281 282 282 283 282 284 285 286 286 286 287 288 292 295 296
316 316 317 318 318 317 316 315 313 313 312 312 313 313 313 306 290 290 308 310 311 307 297 295 293 291 287 288 286 285 281 283 284 285 286 285 284 287 285 284 286 286 289 292 294
316 316 317 318 318 318 316 315 313 312 311 312 313 313 312 296 282 293 307 308 308 301 297 293 290 287 285 284 288 282 286 285 286 288 286 285 287 285 285 287 289 289 291 292 292
316 316 317 318 318 318 316 315 314 311 310 311 311 313 298 287 288 297 304 302 299 297 293 291 288 286 284 286 286 284 285 287 288 288 287 287 286 285 285 288 289 289 289 290 290
316 316 317 317 318 318 316 315 314 311 309 310 311 308 290 283 295 295 295 297 297 295 293 293 290 289 287 286 284 286 286 286 287 287 287 285 285 285 286 287 287 289 290 290 290
317 317 317 317 318 318 315 313 313 311 310 310 310 295 289 285 294 294 296 295 297 295 292 293 293 290 289 285 288 286 283 284 285 286 285 285 281 281 286 287 287 287 288 288 289
317 317 317 318 318 317 315 312 311 309 310 311 304 291 286 295 292 294 295 296 297 298 295 295 295 291 288 288 284 281 281 278 283 285 286 284 278 283 285 285 286 286 286 287 288
317 317 317 318 317 316 314 310 309 309 307 302 291 286 283 297 291 293 294 293 295 296 296 298 291 286 287 282 278 278 274 277 279 284 284 284 279 283 285 285 284 285 285 285 286
318 317 318 318 317 313 311 306 306 301 297 295 292 287 287 285 289 292 294 295 293 293 292 290 285 281 279 278 274 273 274 277 276 280 282 279 279 283 284 283 283 283 283 283 285
318 318 318 317 315 309 299 298 295 294 291 283 283 283 285 289 291 291 293 292 290 287 282 285 280 276 278 279 278 277 277 276 278 281 280 278 278 281 283 281 280 280 281 283 284
319 318 317 316 311 306 295 289 289 290 287 289 285 285 287 288 285 288 294 286 283 278 282 279 276 280 282 282 280 278 273 272 278 280 279 277 277 280 280 280 281 282 282 282 283
318 317 314 312 307 296 291 290 294 292 285 288 284 284 284 288 285 286 290 286 280 276 275 276 280 283 282 280 279 277 274 272 276 279 277 275 274 276 280 282 283 282 282 282 283
315 312 311 312 303 294 289 293 293 292 278 284 282 285 287 287 284 290 290 287 282 276 279 278 283 282 280 279 279 273 279 279 277 271 267 275 267 275 277 278 281 282 281 281 281
313 311 309 308 298 292 292 293 292 290 271 282 281 288 287 284 284 285 290 286 281 279 276 277 279 279 277 280 280 277 280 278 274 269 267 268 265 273 276 277 277 279 281 281 281
309 307 307 301 293 291 293 291 290 280 271 277 281 281 283 283 284 285 286 287 284 281 280 277 282 280 280 281 280 279 274 272 268 263 262 262 266 271 274 275 277 280 280 281 281
306 304 300 297 293 293 292 289 278 271 279 277 277 280 279 279 281 281 280 279 276 272 268 275 277 280 281 278 279 275 266 263 264 262 265 258 265 272 276 276 277 279 279 280 280
305 301 297 295 293 293 291 281 269 271 271 283 279 281 278 278 278 278 278 275 277 275 266 266 269 272 281 277 272 272 267 264 260 262 264 260 264 273 276 278 278 278 278 279 280
306 296 293 293 295 294 288 272 274 274 282 281 282 275 275 278 276 275 274 274 277 275 270 266 268 278 280 280 276 271 266 270 260 254 258 263 266 274 277 272 276 277 278 279 279
300 296 290 293 292 292 281 277 275 283 280 281 277 278 270 271 275 272 275 278 279 279 275 272 267 272 277 279 277 271 274 266 263 260 258 262 258 269 270 270 269 273 272 275 276
301 290 292 292 293 289 279 278 280 286 283 280 279 274 277 272 273 270 275 278 279 277 278 271 268 269 276 271 270 271 268 266 266 266 261 258 267 268 269 269 271 271 274 273 274
293 281 291 292 284 285 283 284 286 283 282 281 280 281 276 274 274 268 274 277 280 277 275 277 272 265 268 274 277 274 270 272 267 263 261 264 267 269 270 264 262 271 275 275 272
290 289 290 291 281 274 284 281 285 284 280 279 278 282 279 278 273 276 276 281 281 279 276 278 267 262 270 272 274 271 274 273 270 270 263 263 270 270 263 266 270 268 274 277 272
287 282 284 286 287 285 281 279 283 283 282 283 282 281 278 276 278 279 278 281 281 281 285 282 274 269 269 269 267 268 272 274 272 264 268 269 274 278 280 280 278 275 274 272 271
290 283 283 281 284 285 285 284 280 280 283 282 277 280 278 278 275 273 277 278 280 284 282 280 268 270 270 270 267 269 269 272 270 270 268 275 270 277 280 280 280 273 276 274 273
287 284 286 285 283 281 284 281 281 283 284 281 275 279 279 276 279 277 278 278 278 278 278 278 270 265 263 272 272 269 272 272 273 273 271 273 272 279 280 279 275 273 271 272 271
285 289 289 285 283 282 282 281 281 283 284 286 282 280 279 280 282 283 283 283 283 278 278 275 268 264 264 266 264 266 269 272 268 266 271 265 273 264 273 270 270 273 269 271 272
Wind_Speed
13 14 14 14 14 14 13 11 11 10 9 9 10 9 9 9 7 6 7 7 9 15 12 5 3 4 5 5 4 2 5 3 5 7 3 1 2 1 1 1 1 2 4 1 5
13 14 15 16 15 15 14 12 9 9 8 8 9 9 10 7 3 8 7 15 15 12 5 5 3 5 5 4 4 5 4 6 2 3 3 2 0 1 1 2 1 1 1 3 5
13 14 15 16 16 16 14 12 9 8 8 8 9 10 9 2 1 4 15 17 14 8 2 1 3 4 5 4 4 1 3 4 2 2 2 2 2 1 2 4 7 6 6 4 3
13 13 15 16 17 16 15 13 10 7 8 8 9 10 5 2 0 3 17 15 12 5 3 3 4 4 4 3 1 5 2 1 3 2 2 2 2 3 6 5 2 5 3 2 5
12 14 15 15 16 16 16 14 11 8 7 8 9 9 1 6 1 6 15 11 4 4 5 3 3 4 5 4 2 4 2 1 1 1 3 2 5 6 8 11 6 4 5 7 7
10 12 14 16 16 17 16 16 10 6 6 7 8 4 2 4 4 7 9 6 6 5 5 6 3 3 6 3 3 2 2 1 1 1 1 3 3 1 5 2 7 6 5 6 7
9 11 13 15 17 17 16 16 9 4 6 5 7 2 7 3 2 6 7 3 4 3 4 3 1 3 4 4 2 2 3 2 2 1 2 2 5 9 4 2 6 5 5 6 7
9 10 11 13 16 19 17 14 6 4 5 5 4 3 3 2 1 5 7 3 6 4 3 2 3 6 5 3 5 4 4 1 0 4 2 2 9 2 2 4 7 7 7 6 6
10 11 11 12 15 18 18 11 3 4 4 4 3 2 2 3 4 5 4 3 5 2 5 2 6 4 4 4 4 7 2 2 4 4 4 2 9 4 3 4 9 11 9 6 6
9 10 11 13 15 18 19 3 3 3 4 2 3 5 5 3 4 4 4 3 4 2 3 7 6 4 4 5 4 4 1 2 4 4 3 6 17 21 8 10 14 11 9 6 6
9 9 10 13 15 18 9 3 7 4 10 3 3 2 3 7 2 5 3 2 2 8 4 4 6 1 1 1 3 5 2 3 4 2 4 5 12 24 13 8 10 10 8 6 6
8 7 8 10 11 15 5 7 3 1 4 2 2 2 1 1 3 6 5 4 6 2 4 7 2 1 5 3 4 4 3 5 5 1 3 7 21 18 8 5 4 2 4 4 4
7 6 6 9 4 7 5 3 2 1 1 3 1 2 2 4 2 6 4 2 5 4 4 5 1 3 1 1 2 1 3 2 3 7 3 8 10 6 3 3 3 3 3 3 8
8 7 10 11 6 1 3 3 2 0 6 4 3 2 2 1 3 2 3 3 4 3 3 3 1 2 2 1 3 1 1 1 2 5 3 6 8 8 4 7 4 5 4 6 7
8 7 9 12 3 4 1 3 0 2 5 3 4 2 3 3 2 4 2 2 3 2 6 5 3 2 1 0 2 1 3 3 3 4 4 5 3 10 4 6 4 4 6 7 8
7 8 6 4 4 2 3 2 2 8 6 4 3 4 4 5 4 5 3 5 3 4 2 3 1 2 1 3 3 4 4 5 4 4 3 3 3 8 3 5 2 2 4 6 6
8 13 6 2 1 4 2 2 8 5 3 5 3 4 2 4 3 5 4 3 0 5 5 5 2 3 1 2 2 4 7 5 7 6 6 1 1 14 6 5 6 7 10 7 6
6 6 6 3 3 3 2 8 5 3 5 2 2 1 2 5 3 5 2 3 2 4 4 4 7 2 5 2 4 2 6 7 5 3 6 2 8 9 7 5 7 8 8 8 8
2 2 3 4 5 2 5 4 9 6 1 2 1 5 5 1 2 4 0 2 2 4 6 4 5 1 5 2 3 2 2 3 8 2 4 3 10 14 5 6 4 5 6 7 6
1 2 3 7 5 4 6 4 2 2 2 1 2 2 2 4 2 4 2 3 3 1 2 4 3 1 2 2 5 5 3 5 4 2 6 7 8 8 6 6 5 4 6 8 7
1 3 2 5 1 4 1 5 5 4 1 1 2 2 5 3 3 2 4 2 3 3 4 5 4 5 2 4 8 1 2 5 4 3 5 4 9 10 9 7 9 9 8 9 9
1 2 3 3 4 1 2 3 2 4 1 2 2 5 5 3 3 3 5 5 4 6 5 4 4 3 8 0 2 3 5 4 5 5 2 2 14 0 8 5 4 11 11 11 8
2 2 3 2 2 2 1 2 4 3 2 1 3 4 2 3 1 4 3 0 6 6 6 6 2 3 7 3 3 3 5 4 3 3 8 5 12 4 3 5 8 11 13 12 8
2 3 4 3 1 3 3 5 6 2 2 3 3 3 2 2 3 2 3 2 5 4 5 5 4 7 8 7 5 4 5 7 6 4 6 16 26 21 24 18 12 9 10 10 9
2 3 3 2 3 5 4 2 4 4 3 3 4 6 7 5 2 6 5 2 3 5 4 3 5 3 6 6 5 7 7 11 13 10 9 27 10 25 22 19 17 7 11 11 11
1 1 1 2 2 3 7 6 11 10 8 5 5 4 7 6 8 6 6 5 6 2 6 4 4 2 6 7 5 7 14 20 19 15 16 22 28 27 27 16 12 11 9 12 11
2 2 1 3 2 3 8 6 6 6 8 14 12 5 7 15 13 6 6 4 4 7 8 7 6 3 6 4 6 9 14 14 6 6 9 8 18 3 11 8 8 11 7 11 11
Wind_Direction
19 15 13 14 10 8 7 10 11 15 10 5 3 5 359 357 13 28 40 324 328 326 335 295 39 33 47 71 46 126 68 192 207 160 173 285 165 107 196 212 306 188 151 149 118
16 15 11 9 10 6 5 6 8 9 7 4 356 355 347 346 65 54 344 342 336 341 2 29 34 37 51 38 21 81 123 212 166 152 152 148 240 295 8 15 252 122 31 110 139
11 11 7 5 5 3 2 357 357 358 357 355 349 346 339 23 92 343 343 343 340 346 215 51 79 65 68 40 2 95 155 168 193 139 107 115 286 210 146 254 217 187 189 182 186
5 5 5 1 4 359 356 352 347 343 350 346 341 343 353 96 145 306 340 344 353 18 107 56 44 62 80 93 332 98 74 89 170 128 97 199 138 269 194 229 154 194 130 179 214
360 357 359 358 357 357 350 344 334 332 344 346 341 341 50 54 9 320 339 349 22 41 47 45 70 113 111 111 84 78 149 75 99 215 261 337 245 238 242 237 245 274 231 231 228
351 348 351 351 350 350 348 341 328 317 336 347 347 348 69 71 314 334 336 0 26 33 29 33 84 108 97 68 63 108 94 30 49 216 261 246 259 146 261 204 203 195 207 226 230
343 343 343 344 343 342 345 341 329 302 322 338 354 63 60 155 338 329 8 7 2 28 62 35 357 82 142 102 126 89 92 103 46 292 246 278 257 232 227 133 167 214 247 294 257
336 336 338 339 339 335 340 340 333 303 313 323 16 72 89 304 270 15 344 358 9 32 68 13 62 96 56 121 32 51 48 75 153 346 307 58 273 279 145 189 244 259 277 273 258
331 332 336 340 339 333 333 328 331 312 320 347 39 67 83 332 35 321 18 358 320 18 30 65 62 80 46 81 27 18 198 286 315 32 331 65 282 191 141 225 269 275 267 259 269
325 329 338 341 343 338 332 310 5 52 355 44 64 48 15 318 304 336 329 27 32 312 33 41 44 73 38 67 227 230 44 251 252 330 1 279 267 282 251 237 257 263 268 252 243
315 333 347 343 349 347 354 20 16 360 39 86 283 294 331 299 271 354 3 357 0 52 44 14 64 71 188 38 91 122 149 251 260 7 305 255 277 283 295 238 259 260 263 246 224
316 351 353 344 1 5 43 67 77 234 318 3 308 318 343 352 356 347 9 74 61 83 338 21 96 138 117 85 92 71 113 274 283 210 317 331 296 292 296 268 229 266 277 235 178
358 11 352 336 59 44 67 71 324 258 102 329 25 6 311 6 75 327 23 72 83 58 31 134 132 139 141 112 85 201 172 265 269 329 69 319 295 323 306 311 283 251 241 205 200
46 18 1 339 57 156 54 325 348 125 68 316 341 3 333 50 41 329 3 104 43 149 140 144 311 160 73 216 118 320 167 59 17 45 277 24 279 300 319 305 273 273 245 238 227
17 18 29 35 134 57 358 324 332 78 11 300 335 283 329 56 311 3 335 3 106 142 88 254 153 146 110 315 119 154 47 64 75 96 38 344 61 270 349 324 311 265 250 252 244
38 15 354 23 49 24 331 320 52 41 265 337 304 338 24 16 13 314 31 54 132 120 80 188 307 51 72 58 57 117 71 43 60 93 16 250 134 278 218 203 279 244 287 286 280
86 51 57 16 100 321 339 43 34 121 335 297 328 22 134 325 2 29 16 23 75 40 351 348 349 335 27 94 57 74 52 332 353 8 230 268 311 246 270 251 224 275 287 284 293
73 66 35 53 326 336 54 49 100 237 234 323 317 351 37 1 17 336 10 353 60 86 98 111 327 29 351 91 176 76 143 152 230 266 276 14 240 252 218 208 234 252 265 288 298
89 31 45 350 344 359 64 69 204 205 237 310 11 61 324 300 186 30 290 209 191 170 152 123 286 332 30 63 90 240 53 161 100 74 29 251 284 287 259 274 243 257 276 269 292
44 74 11 319 347 50 72 263 243 255 333 16 170 121 222 272 5 60 328 213 158 165 138 200 4 268 244 113 37 136 140 47 5 347 302 286 275 243 294 268 303 283 272 281 293
32 32 277 324 68 55 169 235 295 281 321 213 242 260 224 232 179 240 235 250 148 144 105 135 101 288 59 199 179 87 6 47 123 127 185 294 261 214 232 228 264 286 280 269 287
57 9 307 339 64 122 220 158 342 303 10 272 254 207 191 174 211 260 235 219 175 158 166 193 138 217 221 133 137 157 186 161 132 244 222 175 270 200 240 242 228 274 279 284 264
17 294 319 35 227 260 353 252 197 219 247 220 262 225 144 206 277 218 230 256 163 168 167 183 316 2 336 12 4 211 194 165 126 97 201 164 265 271 249 299 252 253 282 293 289
70 322 330 49 35 188 244 254 251 339 216 213 252 137 179 259 203 262 255 189 183 208 188 161 177 185 203 207 138 197 190 209 165 152 229 229 274 282 287 294 294 288 266 278 284
41 245 191 262 236 194 185 159 203 261 198 185 312 226 177 232 205 224 227 204 204 224 175 167 215 224 255 238 193 224 203 213 203 211 210 273 237 272 285 291 292 269 294 299 299
266 237 336 259 201 199 216 212 231 237 185 200 216 227 195 218 208 202 167 196 216 173 165 183 240 112 285 274 268 265 242 233 237 236 251 260 278 269 274 287 280 271 277 286 289
238 301 254 254 166 210 236 221 237 225 229 236 211 197 206 230 233 237 193 186 198 174 189 164 149 119 257 337 337 293 234 215 185 207 189 185 232 334 301 283 261 278 240 267 280